GFSSW_500_temp_000.txt.gz
Temp
-9 -9 -9 -9 -9 -9 -8 -8 -8 -8 -8 -8 -8 -8 -9 -9 -9 -9 -9 -9 -9 -9 -9 -9 -9 -9 -9 -9 -9 -10 -10 -10 -10 -10 -10 -10 -10 -10 -10 -9 -10 -10 -10 -10 -10
-9 -9 -9 -9 -8 -8 -8 -8 -8 -8 -8 -8 -8 -8 -8 -9 -9 -9 -9 -9 -9 -9 -9 -9 -9 -9 -9 -9 -9 -9 -10 -10 -10 -10 -10 -10 -10 -10 -10 -10 -10 -9 -10 -10 -10
-9 -9 -9 -9 -9 -9 -9 -8 -8 -8 -8 -8 -8 -8 -8 -9 -9 -9 -9 -9 -9 -9 -9 -9 -9 -9 -9 -9 -9 -9 -10 -10 -10 -10 -10 -10 -10 -10 -10 -10 -10 -10 -9 -9 -10
-9 -9 -9 -9 -9 -9 -9 -9 -9 -9 -9 -9 -9 -9 -9 -9 -9 -9 -9 -9 -9 -9 -9 -9 -9 -9 -9 -9 -10 -9 -10 -10 -10 -10 -10 -10 -10 -10 -9 -11 -10 -10 -10 -10 -10
-9 -9 -9 -9 -9 -9 -9 -9 -9 -9 -9 -9 -9 -9 -9 -9 -9 -9 -9 -9 -9 -10 -10 -10 -10 -10 -10 -10 -10 -10 -10 -10 -10 -10 -10 -10 -10 -10 -10 -11 -11 -10 -10 -10 -10
-9 -9 -9 -9 -9 -9 -9 -9 -9 -9 -9 -9 -9 -9 -9 -9 -9 -9 -10 -10 -10 -10 -10 -10 -10 -10 -10 -10 -10 -10 -10 -10 -10 -11 -11 -10 -10 -10 -11 -11 -11 -11 -11 -10 -10
-10 -10 -10 -10 -10 -10 -10 -9 -9 -9 -10 -9 -9 -9 -9 -9 -9 -10 -10 -10 -10 -10 -10 -10 -10 -10 -10 -10 -10 -10 -10 -10 -10 -11 -11 -11 -9 -10 -11 -11 -11 -11 -11 -11 -11
-10 -10 -10 -10 -10 -10 -10 -10 -10 -10 -10 -10 -10 -10 -10 -10 -10 -10 -10 -10 -10 -10 -10 -10 -10 -10 -10 -11 -10 -10 -10 -11 -11 -11 -11 -11 -9 -10 -11 -11 -11 -11 -11 -11 -11
-11 -11 -10 -10 -10 -10 -10 -10 -10 -10 -10 -10 -10 -10 -10 -10 -10 -10 -10 -10 -10 -10 -10 -10 -10 -10 -11 -11 -10 -11 -11 -11 -11 -10 -11 -11 -10 -10 -10 -10 -10 -10 -11 -11 -11
-11 -11 -11 -11 -11 -11 -11 -10 -10 -10 -10 -10 -10 -10 -10 -10 -10 -10 -11 -11 -11 -10 -10 -10 -11 -11 -11 -11 -11 -11 -11 -11 -11 -11 -10 -10 -10 -10 -10 -10 -10 -10 -10 -10 -11
-11 -11 -11 -11 -11 -11 -11 -11 -11 -10 -10 -10 -10 -10 -10 -10 -10 -10 -11 -11 -11 -10 -10 -11 -10 -10 -11 -12 -11 -11 -11 -11 -11 -12 -11 -11 -10 -9 -9 -9 -9 -10 -10 -10 -11
-12 -12 -12 -11 -11 -11 -11 -11 -11 -11 -10 -10 -10 -10 -10 -10 -10 -11 -11 -11 -11 -11 -11 -11 -10 -11 -12 -11 -11 -11 -11 -11 -11 -12 -12 -11 -9 -9 -9 -9 -9 -10 -10 -10 -10
-12 -12 -12 -11 -11 -11 -11 -11 -11 -11 -10 -10 -11 -10 -11 -11 -10 -11 -11 -11 -11 -11 -11 -11 -11 -11 -11 -11 -12 -11 -11 -11 -11 -12 -11 -10 -8 -8 -9 -9 -10 -10 -10 -10 -10
-12 -12 -12 -12 -12 -12 -12 -12 -12 -12 -11 -10 -10 -11 -11 -11 -11 -11 -12 -12 -11 -11 -12 -11 -11 -11 -12 -12 -12 -11 -12 -12 -11 -11 -10 -11 -6 -8 -9 -9 -9 -10 -10 -10 -10
-13 -12 -13 -13 -13 -13 -13 -13 -13 -13 -11 -11 -11 -11 -11 -11 -11 -11 -11 -12 -12 -12 -12 -11 -12 -12 -12 -12 -13 -11 -13 -13 -12 -12 -11 -10 -10 -7 -9 -9 -9 -9 -10 -10 -10
-14 -13 -13 -14 -14 -14 -14 -13 -13 -14 -11 -12 -12 -12 -12 -11 -11 -11 -11 -12 -12 -12 -12 -12 -12 -12 -12 -12 -12 -13 -13 -14 -14 -14 -10 -11 -12 -5 -8 -9 -9 -9 -9 -10 -10
-14 -13 -13 -14 -14 -14 -14 -14 -14 -13 -12 -12 -12 -12 -12 -12 -12 -12 -12 -12 -12 -12 -11 -11 -11 -11 -12 -13 -13 -14 -13 -13 -13 -14 -11 -11 -12 -8 -10 -10 -11 -11 -10 -10 -10
-14 -14 -14 -14 -14 -14 -15 -15 -13 -12 -12 -13 -13 -13 -13 -13 -13 -13 -13 -12 -12 -13 -12 -12 -10 -12 -12 -14 -14 -14 -15 -15 -15 -13 -12 -12 -9 -8 -10 -11 -12 -12 -11 -10 -11
-14 -14 -14 -14 -14 -14 -15 -15 -13 -13 -13 -14 -14 -14 -13 -13 -14 -14 -13 -13 -13 -14 -15 -14 -12 -13 -14 -14 -14 -13 -13 -15 -16 -15 -14 -11 -10 -10 -11 -11 -11 -12 -12 -12 -12
-16 -15 -14 -15 -15 -15 -15 -14 -14 -14 -15 -15 -15 -14 -14 -14 -14 -15 -15 -13 -14 -15 -15 -15 -15 -13 -15 -15 -14 -15 -15 -15 -15 -16 -16 -14 -12 -11 -11 -12 -12 -12 -13 -13 -13
-17 -17 -14 -17 -17 -18 -16 -15 -15 -16 -16 -17 -16 -16 -15 -14 -15 -15 -16 -15 -15 -15 -16 -16 -16 -14 -15 -15 -16 -17 -17 -17 -17 -16 -16 -16 -14 -12 -12 -12 -13 -13 -15 -15 -16
-17 -17 -17 -18 -18 -18 -17 -18 -17 -17 -17 -17 -17 -17 -17 -16 -16 -16 -15 -14 -14 -16 -17 -17 -18 -18 -15 -16 -16 -17 -17 -17 -17 -17 -17 -17 -17 -14 -14 -14 -14 -14 -15 -16 -16
-18 -17 -17 -17 -18 -18 -18 -17 -18 -17 -17 -17 -18 -18 -18 -18 -18 -17 -17 -16 -16 -17 -17 -17 -19 -19 -19 -18 -16 -17 -17 -18 -18 -18 -17 -17 -15 -15 -15 -14 -14 -15 -16 -17 -17
-19 -19 -18 -18 -18 -18 -18 -18 -18 -18 -18 -18 -19 -19 -19 -19 -18 -18 -18 -18 -18 -18 -18 -18 -19 -19 -19 -19 -18 -18 -18 -18 -18 -18 -18 -18 -17 -15 -15 -15 -15 -16 -16 -16 -17
-20 -20 -19 -19 -19 -19 -19 -19 -19 -18 -19 -19 -19 -19 -19 -20 -19 -19 -20 -19 -18 -18 -19 -20 -20 -20 -19 -19 -19 -19 -19 -19 -19 -19 -19 -18 -19 -18 -17 -15 -15 -16 -15 -15 -16
-21 -21 -21 -20 -21 -21 -21 -21 -21 -21 -21 -20 -20 -21 -21 -21 -22 -22 -22 -21 -21 -20 -21 -21 -21 -20 -20 -20 -19 -20 -21 -20 -20 -19 -19 -20 -20 -20 -19 -19 -19 -17 -17 -17 -20
-23 -23 -23 -22 -22 -22 -22 -22 -22 -22 -22 -22 -22 -22 -22 -22 -22 -22 -23 -23 -23 -23 -22 -22 -21 -21 -20 -20 -20 -20 -20 -20 -20 -20 -21 -20 -21 -21 -21 -20 -20 -18 -16 -16 -16

GFSSW_500_temp_003.txt.gz
Temp
-9 -9 -9 -9 -9 -9 -9 -9 -9 -8 -8 -8 -8 -8 -8 -8 -8 -8 -8 -8 -9 -9 -9 -9 -9 -9 -9 -9 -9 -9 -10 -10 -10 -10 -10 -10 -10 -10 -10 -10 -10 -9 -10 -10 -10
-9 -9 -9 -9 -9 -9 -9 -9 -9 -9 -9 -9 -9 -9 -9 -9 -9 -9 -9 -9 -9 -9 -9 -9 -9 -9 -9 -9 -9 -9 -10 -10 -10 -10 -10 -10 -10 -10 -10 -10 -10 -10 -9 -9 -10
-9 -9 -9 -9 -9 -9 -9 -9 -9 -9 -9 -9 -9 -9 -9 -9 -9 -9 -9 -9 -9 -9 -9 -9 -9 -9 -9 -9 -10 -9 -10 -10 -10 -10 -10 -10 -10 -10 -10 -10 -11 -10 -10 -10 -10
-9 -9 -9 -9 -9 -9 -9 -9 -9 -9 -9 -9 -9 -9 -9 -9 -9 -9 -9 -9 -9 -10 -10 -10 -10 -10 -10 -10 -10 -9 -10 -11 -10 -10 -10 -10 -10 -10 -9 -11 -11 -11 -10 -11 -10
-9 -9 -9 -9 -9 -9 -9 -9 -9 -9 -9 -9 -9 -9 -9 -9 -10 -9 -9 -9 -10 -10 -10 -10 -10 -10 -10 -10 -10 -10 -10 -10 -11 -10 -11 -11 -11 -10 -9 -12 -11 -11 -11 -11 -11
-10 -9 -9 -9 -9 -9 -9 -9 -9 -9 -9 -9 -9 -9 -9 -9 -9 -9 -10 -10 -10 -10 -10 -10 -10 -10 -10 -10 -10 -10 -10 -10 -10 -11 -11 -12 -12 -10 -11 -12 -11 -10 -11 -11 -11
-10 -10 -10 -10 -10 -9 -9 -9 -9 -10 -10 -10 -9 -10 -9 -10 -9 -10 -10 -10 -10 -10 -10 -10 -10 -10 -10 -10 -10 -10 -10 -10 -11 -11 -12 -12 -11 -10 -11 -12 -11 -11 -11 -11 -11
-10 -10 -10 -10 -10 -10 -10 -10 -10 -10 -10 -10 -10 -10 -10 -10 -10 -10 -10 -10 -10 -10 -10 -10 -10 -10 -10 -10 -10 -11 -10 -11 -11 -12 -11 -11 -11 -10 -11 -11 -11 -11 -11 -11 -11
-11 -11 -10 -11 -10 -10 -10 -10 -10 -10 -10 -10 -10 -10 -10 -10 -10 -11 -11 -10 -10 -10 -10 -10 -10 -10 -11 -10 -10 -11 -11 -11 -11 -11 -11 -11 -10 -11 -11 -11 -11 -10 -10 -11 -11
-11 -11 -11 -11 -11 -11 -11 -11 -11 -11 -11 -10 -10 -10 -10 -10 -10 -11 -11 -11 -11 -11 -10 -10 -11 -11 -11 -10 -11 -11 -11 -11 -11 -11 -11 -11 -10 -10 -11 -10 -10 -10 -10 -10 -10
-11 -11 -11 -11 -11 -11 -11 -11 -11 -11 -11 -11 -10 -10 -10 -10 -10 -11 -11 -11 -11 -11 -11 -11 -10 -10 -11 -11 -11 -11 -11 -10 -11 -12 -11 -11 -9 -9 -9 -10 -10 -10 -10 -10 -10
-11 -11 -11 -11 -11 -11 -11 -11 -11 -11 -11 -11 -11 -10 -11 -11 -10 -11 -11 -11 -11 -11 -12 -11 -10 -11 -12 -11 -11 -11 -11 -11 -11 -12 -11 -10 -8 -9 -9 -9 -10 -10 -10 -10 -10
-12 -12 -12 -12 -12 -12 -11 -11 -11 -11 -10 -10 -11 -11 -11 -11 -11 -11 -11 -11 -11 -11 -11 -11 -10 -11 -11 -11 -12 -12 -12 -12 -11 -11 -10 -9 -7 -9 -9 -9 -10 -10 -10 -10 -10
-12 -12 -12 -12 -12 -12 -12 -12 -11 -11 -11 -10 -11 -11 -11 -11 -11 -11 -11 -12 -12 -11 -12 -10 -11 -11 -11 -11 -13 -11 -13 -12 -12 -11 -10 -10 -6 -7 -8 -9 -9 -9 -10 -10 -10
-13 -13 -14 -13 -13 -13 -13 -13 -13 -13 -11 -11 -11 -11 -12 -12 -12 -12 -12 -12 -12 -12 -12 -12 -12 -12 -12 -12 -13 -12 -13 -13 -13 -12 -11 -10 -9 -7 -9 -9 -9 -9 -9 -10 -11
-13 -13 -14 -15 -14 -14 -14 -14 -14 -13 -11 -12 -12 -12 -13 -12 -13 -12 -13 -12 -12 -12 -12 -12 -12 -12 -12 -13 -13 -13 -12 -13 -13 -13 -11 -10 -12 -4 -8 -8 -9 -9 -9 -9 -9
-13 -14 -14 -15 -15 -15 -15 -14 -15 -13 -12 -12 -13 -13 -14 -14 -14 -13 -13 -13 -13 -12 -12 -12 -12 -12 -12 -13 -13 -14 -14 -14 -13 -13 -11 -11 -12 -7 -9 -9 -9 -10 -10 -10 -10
-14 -13 -14 -14 -15 -15 -15 -15 -14 -12 -12 -13 -14 -15 -14 -15 -14 -14 -14 -13 -13 -14 -13 -13 -12 -13 -13 -14 -14 -14 -15 -15 -15 -14 -13 -12 -11 -9 -11 -11 -11 -11 -10 -10 -12
-15 -15 -14 -15 -15 -16 -17 -15 -13 -13 -14 -14 -14 -14 -14 -15 -16 -16 -16 -15 -15 -15 -16 -15 -13 -14 -15 -14 -14 -14 -14 -16 -16 -16 -16 -12 -12 -11 -11 -11 -11 -11 -11 -12 -12
-15 -17 -14 -15 -16 -16 -17 -14 -13 -14 -15 -15 -15 -15 -14 -15 -16 -16 -16 -15 -15 -15 -16 -16 -16 -15 -15 -16 -14 -16 -16 -16 -17 -17 -17 -16 -15 -13 -11 -12 -13 -12 -12 -12 -14
-18 -18 -17 -17 -18 -18 -17 -15 -16 -15 -16 -17 -16 -16 -15 -15 -16 -17 -17 -16 -16 -16 -16 -17 -17 -15 -16 -15 -16 -16 -16 -16 -16 -17 -17 -17 -17 -15 -13 -12 -12 -13 -14 -15 -16
-18 -18 -18 -18 -18 -18 -18 -17 -17 -17 -17 -18 -18 -18 -17 -17 -17 -20 -19 -17 -18 -18 -18 -17 -18 -19 -16 -16 -16 -17 -16 -16 -18 -17 -18 -19 -18 -15 -15 -15 -15 -14 -15 -16 -17
-19 -19 -19 -19 -19 -18 -18 -18 -18 -18 -18 -18 -19 -18 -18 -18 -19 -18 -19 -19 -19 -19 -19 -18 -19 -19 -19 -17 -16 -18 -18 -18 -18 -19 -19 -19 -18 -17 -17 -16 -15 -16 -16 -17 -17
-20 -20 -20 -20 -19 -19 -19 -19 -19 -19 -18 -19 -19 -19 -19 -19 -19 -19 -19 -19 -20 -19 -19 -19 -19 -19 -19 -19 -19 -19 -19 -18 -20 -20 -19 -19 -19 -19 -19 -19 -18 -18 -17 -16 -16
-20 -21 -21 -20 -20 -20 -20 -20 -19 -19 -19 -20 -20 -20 -20 -21 -20 -20 -20 -20 -19 -20 -20 -21 -20 -21 -20 -20 -20 -21 -20 -20 -20 -20 -21 -20 -21 -21 -21 -21 -20 -19 -18 -18 -18
-22 -22 -21 -22 -22 -22 -21 -21 -21 -20 -21 -21 -21 -21 -21 -21 -21 -21 -21 -21 -21 -21 -22 -22 -22 -22 -22 -21 -22 -22 -21 -21 -22 -21 -20 -20 -20 -21 -21 -21 -21 -20 -19 -18 -18
-23 -23 -23 -23 -23 -23 -22 -23 -23 -22 -22 -22 -22 -22 -22 -23 -22 -22 -22 -22 -22 -22 -22 -22 -22 -22 -22 -22 -22 -22 -21 -22 -22 -22 -21 -21 -21 -21 -21 -21 -21 -20 -21 -20 -20

GFSSW_500_temp_006.txt.gz
Temp
-9 -9 -9 -9 -9 -9 -9 -9 -9 -9 -9 -9 -9 -9 -9 -9 -9 -9 -9 -9 -9 -9 -9 -9 -9 -9 -9 -9 -9 -9 -9 -10 -10 -10 -10 -10 -10 -10 -10 -10 -10 -10 -10 -10 -10
-9 -9 -9 -9 -9 -9 -9 -9 -9 -9 -9 -9 -9 -9 -9 -9 -9 -9 -9 -9 -9 -9 -9 -9 -9 -9 -9 -9 -9 -9 -9 -10 -10 -10 -10 -10 -10 -10 -10 -10 -11 -10 -10 -10 -10
-9 -9 -9 -9 -9 -9 -9 -9 -9 -9 -9 -9 -9 -9 -9 -9 -9 -9 -9 -9 -9 -9 -9 -10 -10 -10 -10 -10 -10 -9 -10 -10 -10 -10 -10 -10 -11 -11 -10 -10 -12 -11 -11 -10 -11
-9 -9 -9 -9 -9 -9 -9 -9 -9 -9 -9 -9 -9 -9 -9 -9 -9 -9 -9 -9 -9 -10 -10 -10 -10 -10 -10 -10 -10 -10 -10 -10 -10 -11 -11 -11 -11 -11 -10 -11 -12 -12 -11 -11 -11
-9 -9 -9 -9 -9 -9 -9 -9 -9 -9 -9 -9 -9 -9 -9 -9 -10 -9 -9 -10 -10 -9 -10 -10 -10 -10 -10 -10 -10 -10 -10 -10 -11 -11 -11 -11 -11 -11 -10 -12 -12 -12 -11 -11 -11
-10 -9 -9 -9 -9 -9 -9 -9 -9 -9 -9 -9 -9 -9 -10 -10 -10 -10 -10 -10 -10 -10 -10 -10 -10 -10 -10 -10 -10 -10 -10 -11 -11 -11 -11 -12 -12 -10 -10 -12 -12 -12 -11 -11 -10
-10 -10 -10 -10 -10 -10 -10 -10 -10 -9 -9 -10 -10 -10 -10 -10 -10 -10 -10 -10 -10 -10 -10 -10 -10 -10 -10 -10 -10 -10 -10 -10 -11 -11 -11 -11 -11 -10 -11 -11 -12 -11 -11 -11 -11
-10 -10 -10 -10 -10 -10 -10 -10 -10 -10 -10 -10 -10 -10 -10 -11 -11 -11 -11 -10 -10 -10 -10 -10 -10 -10 -10 -10 -10 -10 -10 -10 -11 -11 -11 -11 -10 -11 -11 -11 -11 -11 -10 -11 -11
-10 -10 -10 -10 -10 -10 -10 -10 -10 -11 -11 -11 -11 -11 -11 -11 -11 -11 -11 -11 -11 -11 -11 -11 -10 -11 -11 -11 -10 -11 -11 -11 -10 -11 -11 -10 -10 -10 -11 -10 -10 -10 -10 -11 -11
-11 -11 -11 -11 -11 -11 -11 -11 -11 -10 -11 -11 -11 -11 -11 -11 -11 -11 -11 -11 -11 -11 -11 -11 -11 -11 -11 -11 -11 -11 -10 -10 -10 -11 -10 -10 -10 -10 -10 -10 -10 -10 -11 -11 -11
-11 -11 -11 -11 -11 -11 -11 -11 -11 -11 -11 -11 -11 -10 -11 -11 -11 -11 -11 -11 -11 -11 -11 -11 -11 -11 -12 -12 -12 -11 -11 -10 -11 -11 -10 -9 -8 -9 -9 -9 -10 -10 -10 -10 -10
-12 -11 -11 -11 -11 -11 -11 -11 -11 -11 -11 -11 -11 -11 -11 -11 -11 -11 -11 -11 -11 -11 -11 -11 -11 -12 -12 -12 -12 -12 -11 -11 -10 -11 -10 -9 -8 -9 -9 -9 -10 -10 -10 -10 -10
-12 -12 -12 -12 -12 -12 -12 -11 -11 -11 -10 -10 -11 -11 -11 -11 -11 -11 -12 -12 -11 -11 -11 -11 -11 -12 -12 -12 -12 -12 -12 -12 -10 -11 -10 -9 -7 -8 -9 -9 -10 -10 -10 -10 -10
-12 -12 -12 -12 -12 -12 -13 -13 -12 -12 -10 -10 -11 -11 -12 -12 -12 -12 -12 -12 -12 -13 -13 -11 -12 -12 -13 -12 -13 -12 -13 -12 -12 -11 -10 -10 -6 -7 -8 -9 -9 -9 -10 -10 -11
-13 -13 -12 -12 -12 -12 -13 -13 -13 -13 -11 -11 -11 -12 -12 -12 -12 -13 -13 -13 -13 -13 -14 -13 -13 -13 -12 -13 -13 -12 -12 -13 -13 -12 -11 -10 -10 -7 -9 -9 -9 -10 -10 -10 -11
-13 -13 -13 -13 -13 -13 -13 -13 -14 -14 -11 -12 -12 -13 -13 -14 -13 -13 -13 -13 -13 -13 -13 -13 -13 -12 -13 -13 -13 -13 -13 -13 -13 -12 -12 -11 -12 -5 -9 -9 -10 -10 -11 -11 -11
-13 -14 -14 -14 -14 -14 -14 -14 -14 -13 -12 -12 -13 -14 -14 -15 -15 -15 -14 -14 -14 -14 -13 -14 -13 -12 -13 -13 -14 -15 -15 -14 -14 -13 -12 -12 -13 -9 -10 -11 -11 -11 -12 -12 -12
-15 -15 -14 -15 -15 -15 -15 -15 -14 -12 -12 -14 -15 -15 -14 -15 -15 -15 -15 -15 -15 -15 -14 -13 -12 -14 -14 -15 -15 -15 -16 -15 -15 -14 -14 -13 -12 -10 -11 -11 -11 -12 -12 -13 -13
-14 -14 -14 -16 -15 -15 -16 -15 -13 -13 -14 -15 -15 -15 -15 -15 -17 -16 -16 -15 -15 -16 -16 -16 -13 -13 -14 -15 -15 -15 -15 -17 -17 -17 -17 -14 -13 -12 -12 -12 -13 -13 -13 -15 -15
-15 -15 -14 -17 -17 -17 -18 -14 -14 -15 -14 -15 -15 -16 -15 -16 -17 -17 -17 -15 -15 -15 -16 -16 -16 -14 -15 -15 -15 -16 -16 -16 -17 -18 -18 -17 -15 -14 -13 -13 -14 -15 -16 -16 -16
-16 -16 -16 -17 -18 -17 -17 -16 -16 -16 -17 -17 -17 -18 -17 -16 -18 -18 -19 -17 -16 -17 -17 -18 -18 -15 -15 -14 -15 -17 -17 -17 -18 -20 -19 -19 -19 -17 -15 -14 -15 -16 -16 -15 -16
-17 -17 -17 -17 -18 -18 -17 -18 -18 -18 -18 -18 -19 -19 -19 -19 -19 -19 -19 -19 -18 -18 -18 -18 -18 -19 -18 -17 -17 -17 -18 -18 -19 -19 -20 -20 -19 -18 -17 -17 -17 -16 -16 -15 -15
-18 -18 -18 -18 -18 -19 -19 -19 -20 -19 -19 -19 -19 -19 -19 -19 -19 -19 -19 -19 -19 -19 -19 -19 -19 -20 -19 -19 -18 -19 -20 -20 -20 -20 -20 -20 -19 -19 -20 -20 -18 -17 -17 -16 -16
-20 -19 -19 -20 -20 -20 -20 -20 -20 -20 -20 -20 -20 -20 -20 -20 -20 -21 -21 -21 -21 -20 -20 -20 -21 -21 -20 -20 -21 -21 -21 -21 -21 -20 -20 -20 -19 -19 -20 -20 -20 -19 -19 -18 -18
-20 -20 -20 -20 -20 -21 -21 -21 -20 -20 -21 -21 -21 -21 -21 -22 -21 -21 -22 -22 -21 -20 -21 -21 -22 -22 -21 -22 -22 -22 -21 -21 -21 -21 -22 -21 -21 -22 -21 -21 -22 -21 -20 -20 -19
-21 -21 -21 -21 -22 -22 -22 -22 -22 -22 -23 -22 -23 -22 -22 -22 -22 -22 -22 -22 -22 -22 -22 -22 -22 -22 -22 -22 -23 -23 -22 -22 -22 -22 -23 -23 -22 -22 -22 -22 -22 -22 -21 -21 -20
-22 -22 -22 -22 -23 -23 -23 -23 -23 -23 -23 -23 -23 -23 -23 -23 -23 -23 -23 -23 -23 -23 -23 -23 -23 -23 -23 -23 -23 -23 -22 -22 -23 -23 -23 -23 -23 -23 -23 -24 -23 -22 -21 -21 -21

GFSSW_500_temp_009.txt.gz
Temp
-9 -9 -9 -9 -9 -9 -9 -9 -9 -9 -9 -9 -9 -9 -9 -9 -9 -9 -9 -9 -9 -9 -9 -9 -9 -9 -9 -9 -9 -9 -9 -10 -10 -10 -10 -10 -10 -10 -10 -10 -11 -11 -10 -10 -10
-9 -9 -9 -9 -9 -9 -9 -9 -9 -9 -9 -9 -9 -9 -9 -9 -9 -9 -9 -9 -9 -9 -9 -9 -9 -9 -9 -9 -9 -9 -10 -10 -10 -10 -10 -10 -11 -11 -10 -11 -11 -11 -11 -11 -11
-10 -10 -10 -10 -9 -9 -9 -9 -9 -9 -9 -9 -9 -9 -9 -9 -9 -9 -9 -9 -9 -9 -9 -9 -9 -10 -10 -10 -10 -10 -10 -10 -10 -11 -10 -10 -11 -11 -11 -11 -12 -11 -11 -11 -11
-10 -10 -10 -10 -10 -9 -9 -9 -9 -9 -9 -9 -9 -9 -9 -9 -9 -10 -9 -9 -10 -10 -10 -10 -10 -10 -10 -10 -10 -10 -10 -10 -10 -11 -11 -11 -11 -11 -11 -11 -12 -11 -11 -11 -11
-9 -9 -9 -9 -9 -9 -9 -9 -9 -9 -9 -9 -9 -9 -9 -9 -10 -10 -10 -10 -10 -10 -10 -10 -10 -10 -10 -10 -10 -10 -10 -10 -11 -11 -11 -11 -11 -11 -10 -12 -11 -11 -11 -11 -10
-10 -10 -10 -10 -9 -9 -9 -9 -9 -9 -9 -9 -9 -9 -10 -10 -10 -10 -10 -10 -10 -10 -10 -10 -10 -10 -10 -10 -10 -10 -10 -10 -10 -11 -11 -11 -11 -10 -11 -11 -11 -11 -11 -11 -10
-10 -10 -10 -10 -10 -10 -10 -10 -10 -10 -10 -10 -10 -10 -10 -10 -10 -10 -10 -11 -11 -11 -10 -10 -10 -10 -10 -10 -10 -10 -10 -10 -11 -11 -11 -11 -10 -11 -11 -11 -11 -11 -11 -11 -11
-10 -10 -10 -10 -10 -10 -10 -10 -10 -10 -10 -10 -10 -10 -10 -11 -11 -11 -11 -11 -11 -11 -11 -11 -10 -10 -10 -11 -10 -10 -10 -10 -11 -11 -11 -11 -10 -11 -11 -11 -10 -10 -11 -11 -11
-11 -11 -11 -11 -10 -10 -10 -10 -10 -10 -10 -10 -10 -10 -10 -11 -11 -11 -11 -11 -11 -11 -11 -11 -10 -10 -11 -11 -10 -11 -10 -10 -10 -11 -10 -10 -9 -10 -11 -10 -10 -10 -11 -11 -11
-11 -11 -11 -11 -11 -11 -11 -11 -11 -11 -10 -10 -10 -10 -11 -11 -11 -11 -11 -11 -11 -11 -11 -11 -11 -11 -11 -11 -11 -10 -10 -10 -10 -11 -10 -9 -9 -10 -10 -10 -10 -10 -10 -11 -11
-12 -11 -11 -11 -11 -11 -11 -11 -11 -11 -11 -11 -11 -11 -11 -11 -11 -11 -11 -11 -11 -11 -11 -11 -11 -11 -11 -11 -11 -10 -10 -10 -11 -11 -10 -9 -9 -9 -10 -10 -10 -10 -10 -11 -11
-12 -12 -12 -12 -12 -11 -11 -11 -11 -10 -10 -11 -11 -11 -11 -11 -11 -11 -11 -11 -11 -11 -11 -11 -10 -12 -11 -11 -11 -11 -11 -11 -10 -10 -9 -9 -8 -9 -9 -10 -10 -10 -11 -11 -11
-12 -12 -12 -12 -12 -12 -12 -11 -11 -11 -10 -10 -11 -11 -12 -12 -11 -12 -12 -12 -12 -11 -12 -11 -11 -12 -11 -12 -12 -12 -11 -11 -10 -10 -10 -8 -8 -9 -9 -10 -10 -11 -11 -11 -11
-13 -12 -12 -12 -12 -12 -12 -12 -12 -12 -11 -10 -11 -11 -12 -12 -12 -12 -12 -12 -13 -13 -13 -13 -13 -12 -12 -12 -13 -12 -13 -12 -12 -11 -10 -9 -7 -8 -8 -9 -10 -10 -10 -11 -11
-13 -13 -13 -13 -13 -13 -13 -12 -12 -12 -11 -11 -12 -12 -12 -12 -12 -13 -13 -13 -13 -14 -13 -14 -14 -14 -14 -14 -13 -13 -13 -13 -12 -12 -11 -9 -10 -8 -9 -10 -11 -12 -12 -12 -12
-13 -13 -13 -14 -13 -13 -13 -13 -13 -13 -11 -12 -13 -13 -13 -13 -13 -13 -14 -14 -14 -14 -14 -14 -14 -14 -15 -15 -15 -14 -14 -14 -13 -13 -12 -11 -11 -8 -9 -11 -12 -14 -15 -15 -13
-14 -14 -14 -14 -14 -14 -14 -14 -13 -13 -13 -13 -13 -14 -15 -15 -15 -15 -15 -15 -15 -15 -14 -14 -14 -13 -15 -15 -15 -16 -16 -15 -15 -14 -13 -12 -12 -10 -11 -12 -13 -14 -14 -13 -14
-14 -14 -14 -15 -15 -15 -15 -15 -14 -12 -14 -15 -16 -15 -15 -16 -16 -16 -16 -16 -16 -16 -16 -15 -13 -14 -15 -16 -16 -16 -16 -16 -17 -16 -14 -14 -13 -10 -11 -12 -14 -14 -13 -14 -14
-14 -14 -14 -16 -15 -15 -15 -14 -13 -13 -14 -15 -16 -16 -16 -16 -16 -16 -16 -16 -16 -17 -17 -17 -14 -15 -16 -16 -17 -16 -17 -17 -18 -17 -17 -14 -13 -12 -12 -14 -14 -14 -15 -15 -15
-14 -14 -15 -16 -16 -16 -16 -14 -14 -15 -15 -16 -16 -16 -15 -15 -16 -17 -16 -15 -15 -17 -17 -18 -17 -15 -15 -16 -16 -18 -18 -18 -18 -19 -19 -18 -16 -14 -13 -14 -15 -15 -15 -15 -15
-16 -16 -17 -18 -18 -18 -17 -16 -16 -16 -17 -18 -17 -17 -16 -17 -17 -18 -18 -17 -17 -18 -19 -19 -19 -17 -18 -16 -18 -18 -18 -18 -19 -19 -19 -20 -19 -17 -17 -16 -15 -15 -15 -15 -15
-18 -18 -18 -19 -18 -18 -17 -17 -18 -17 -18 -18 -18 -18 -19 -19 -19 -19 -19 -19 -19 -19 -19 -19 -20 -20 -19 -18 -19 -19 -19 -19 -20 -19 -20 -20 -20 -20 -20 -19 -18 -16 -16 -16 -17
-18 -18 -18 -18 -18 -18 -19 -18 -19 -18 -19 -19 -20 -20 -20 -20 -20 -20 -20 -20 -20 -20 -20 -20 -20 -20 -20 -19 -19 -19 -20 -20 -19 -20 -20 -21 -20 -20 -21 -21 -20 -20 -19 -17 -17
-19 -19 -19 -19 -19 -19 -19 -19 -19 -19 -19 -20 -20 -20 -20 -21 -21 -21 -21 -21 -21 -21 -21 -21 -21 -21 -21 -21 -21 -21 -21 -21 -21 -21 -21 -21 -22 -21 -22 -21 -21 -20 -20 -20 -19
-20 -20 -19 -20 -20 -20 -21 -20 -20 -21 -21 -21 -21 -22 -22 -22 -22 -22 -22 -22 -22 -22 -22 -22 -22 -22 -22 -22 -22 -22 -22 -22 -21 -22 -23 -22 -22 -22 -22 -22 -22 -22 -21 -21 -21
-21 -21 -21 -21 -21 -21 -21 -21 -21 -21 -22 -21 -23 -22 -23 -23 -23 -23 -23 -23 -23 -22 -23 -22 -23 -23 -22 -22 -23 -23 -23 -22 -22 -23 -23 -23 -23 -23 -23 -23 -23 -23 -23 -23 -23
-22 -22 -22 -22 -22 -22 -22 -22 -22 -22 -22 -22 -23 -23 -23 -23 -24 -24 -24 -24 -23 -23 -23 -24 -24 -24 -24 -24 -24 -24 -23 -23 -24 -24 -24 -24 -25 -25 -25 -25 -24 -24 -24 -24 -24